MTI                     
1 26102U 00014A   19259.59937275  .00003437  00000-0  55547-4 0  9996
2 26102  97.5428 122.8270 0008783 147.9404 212.2384 15.53592694 81814
TAURUS R/B              
1 26103U 00014B   19259.90218086  .00000251  00000-0  18317-4 0  9999
2 26103  97.2332 222.3039 0027566 304.5959  55.2672 15.11576931 71084